Tracking 26218 objects as of 26-Sep-2022
HD Live streaming from Space Station
objects crossing your sky now

FLOCK 4X 7

Track FLOCK 4X 7 now!
10-day predictions


NORAD ID: 51065
Int'l Code: 2022-002CK
Perigee: 516.0 km
Apogee: 530.8 km
Inclination: 97.5 °
Period: 95.0 minutes
Semi major axis: 6894 km
RCS: Unknown
Launch date: January 13, 2022
Source: United States (US)
Launch site: AIR FORCE EASTERN TEST RANGE (AFETR)
aabbcc
Your satellite tracking list
Your tracking list is empty




NASA's NSSDC Master Catalog

Two Line Element Set (TLE):
1 51065U 22002CK  22268.59661456  .00006234  00000-0  32248-3 0  9992
2 51065  97.4786 334.3326 0010732  85.8612 274.3847 15.16549163 38598
Source of the keplerian elements: AFSPC